TIME,DELAY(SENSOR),PRES,T(CTD),SAL,OXYGEN,RAWTEMP,T(OPTODE),TCPHASE,FLUOR,BETA(BETA700),BETA(BETA412),BETA(BETA440),CDOM,C(CSC),ED(ED412.40),ED(ED444.00),ED(ED489.70),ED(ED554.30),LU(LU411.80),LU(LU443.40),LU(LU489.60),LU(LU554.10),COMP,TILTX,TILTX(TILTY),CHECK
1369863779,5808,497.6099853515625000,6.3343000411987305,34.1183013916015600,70.4449462890625000,608.5446777343750000,6.3078918457031250,50.1848297119140600,51,103,86,80,78,14838,2147750793,2147425161,2148007314,2147875053,2147629019,2147061942,2148244114,2147205632,3051,4,13,23207
1369863944,5808,484.6499938964844000,6.5184998512268070,34.1157989501953100,77.7889175415039000,602.6710815429688000,6.4979457855224610,49.2083091735839840,51,103,87,79,79,14840,2147745755,2147425673,2148003931,2147874916,2147630299,2147070848,2148246747,2147201380,1566,4,13,15831
1369864067,5809,473.2699890136719000,6.6992998123168945,34.1100006103515600,83.2151107788086000,596.0404052734375000,6.7121009826660160,48.4759216308593750,51,103,89,80,79,14844,2147745142,2147425865,2148007533,2147874185,2147629275,2147071972,2148249609,2147203995,1023,4,13,49829
1369864188,5809,462.2300109863281000,6.9521999359130860,34.1085014343261700,90.6517868041992200,588.7633056640625000,6.9466547966003420,47.5278587341308600,51,102,88,78,78,14842,2147741147,2147424978,2148007698,2147875602,2147628571,2147071945,2148241554,2147203419,3370,4,13,26560
1369864311,5805,451.1000061035156000,7.1290001869201660,34.1060981750488300,97.3335876464843800,583.6152954101562000,7.1122908592224120,46.7215003967285160,51,103,86,79,76,14843,2147747648,2147421942,2148006418,2147873088,2147630454,2147076708,2148240557,2147200091,2577,4,13,24315
1369864432,5807,439.9599914550781000,7.4404997825622560,34.0945014953613300,104.9023971557617200,574.0925292968750000,7.4180488586425780,45.7774009704589840,50,104,84,79,76,14838,2147743954,2147423872,2148007597,2147874816,2147628763,2147078473,2148242011,2147205376,3471,4,13,30650
1369864556,5809,428.8200073242187500,7.7765998840332030,34.0798988342285160,123.8186035156250000,563.4898071289062000,7.7575321197509770,43.7497482299804700,51,105,85,77,75,14848,2147741732,2147422957,2148005065,2147875172,2147623734,2147078528,2148240128,2147205001,3457,4,13,12029
1369864666,5806,418.4800109863281000,7.9352002143859860,34.0788002014160160,133.2243041992187500,556.3621215820312000,7.9852089881896970,42.7727317810058600,50,105,87,78,75,14843,2147738578,2147424448,2148004242,2147875547,2147624804,2147079222,2148239204,2147205120,2936,3,13,6289
1369864787,5805,406.7999877929687500,8.1849002838134770,34.0759010314941400,144.0970001220703000,550.6405029296875000,8.1676597595214840,41.7380714416503900,50,104,89,81,76,14848,2147741769,2147424960,2148002413,2147874916,2147622464,2147080064,2148241371,2147198116,1727,4,13,50812
1369864889,5808,396.3399963378906000,8.2673997879028320,34.0768013000488300,149.2301025390625000,547.8095703125000000,8.2578315734863280,41.2660408020019500,50,103,84,80,74,14841,2147738258,2147423085,2148003913,2147874934,2147621568,2147081444,2148234422,2147202624,1142,4,13,13190
1369864999,5806,384.8800048828125000,8.4752998352050780,34.0806999206543000,155.4604034423828000,541.5305175781250000,8.4576034545898440,40.6565399169921900,50,105,91,80,74,14844,2147739977,2147422838,2148003958,2147874166,2147621348,2147080356,2148231670,2147202368,542,4,13,22389
1369865109,5809,374.1400146484375000,8.7622003555297850,34.0826988220214840,161.5406951904297000,532.4976196289062000,8.7444381713867190,40.0286788940429700,50,103,86,79,74,14845,2147738688,2147425545,2148001782,2147874642,2147621019,2147086363,2148234331,2147203181,3263,4,13,21598
1369865248,5806,364.2399902343750000,9.1035003662109380,34.0931015014648440,171.8997955322265600,521.8350219726562000,9.0822067260742190,39.0753517150878900,50,103,86,79,72,14845,2147737426,2147424374,2148006198,2147874569,2147616996,2147088777,2148226669,2147199186,1950,4,14,64527
1369865501,5805,351.9200134277344000,9.2564001083374020,34.0946998596191400,177.8462066650390600,516.4796142578125000,9.2515277862548830,38.5615501403808600,49,103,87,80,72,14844,2147733979,2147427483,2148008493,2147873801,2147614427,2147090102,2148230939,2147202377,884,3,14,56597
1369865664,5807,340.5000000000000000,9.6503000259399410,34.1085014343261700,186.8977966308593800,504.2685852050781000,9.6368188858032230,37.7360916137695300,49,107,84,79,71,14834,2147734272,2147426404,2148014153,2147872813,2147613906,2147093988,2148229284,2147203200,2593,3,13,27788
1369865843,5806,326.7399902343750000,10.2510995864868160,34.1259994506835940,196.3285980224609400,485.2334899902344000,10.2353401184082030,36.8036804199218750,49,105,87,81,70,14841,2147736320,2147430674,2148019675,2147874422,2147614601,2147101878,2148233481,2147207405,3393,4,14,6010
1369865953,5810,316.6499938964844000,10.4110002517700200,34.1360015869140600,201.2606964111328000,479.7633972167969000,10.4068899154663090,36.4061813354492200,49,104,88,80,70,14834,2147734884,2147432064,2148028708,2147872539,2147607542,2147105984,2148230628,2147204187,2764,3,13,57570
1369866077,5806,305.4599914550781000,10.7898998260498050,34.1531982421875000,202.0233001708984400,466.7659912109375000,10.8137397766113280,36.1435012817382800,48,106,85,80,70,14835,2147732772,2147436324,2148041462,2147874112,2147609700,2147103186,2148240173,2147205659,1569,4,14,39752
1369866198,5812,294.6000061035156000,11.1750001907348630,34.1627006530761700,209.1560974121093800,455.1705017089844000,11.1758403778076170,35.5278587341308600,49,103,89,80,69,14838,2147730651,2147442916,2148056182,2147874669,2147606482,2147108864,2148242797,2147206116,1339,3,13,53557
1369866319,5809,283.7799987792969000,11.4467000961303710,34.1752014160156250,211.3455963134765600,444.8700866699219000,11.4968299865722660,35.2341995239257800,49,104,89,78,68,14840,2147731172,2147447972,2148081645,2147876032,2147605540,2147117467,2148249371,2147205037,555,3,13,20201
1369866442,5806,272.9899902343750000,11.6774997711181640,34.1819992065429700,211.9071960449218800,438.2804870605469000,11.7018804550170900,35.0956611633300800,49,105,86,80,68,14832,2147731986,2147461202,2148112612,2147876562,2147605677,2147129152,2148271680,2147209773,265,3,13,43212
1369866574,5808,262.5100097656250000,12.5027999877929690,34.2420997619628900,217.5281066894531200,412.0398864746094000,12.5161504745483400,34.3628692626953100,48,103,90,80,68,14834,2147729408,2147475254,2148137654,2147873883,2147602285,2147138587,2148278226,2147211620,2844,4,13,6284
1369866752,5805,248.6999969482422000,13.3997001647949220,34.3092002868652340,224.7203979492187500,383.7885131835937500,13.3892202377319340,33.5364990234375000,48,103,87,81,66,14831,2147732617,2147515008,2148230070,2147878637,2147597650,2147165046,2148320621,2147219008,2510,4,14,36928
1369866862,5806,238.3999938964843800,13.8803997039794920,34.3497009277343750,227.9586944580078000,367.6141967773437500,13.8875999450683600,33.1225395202636700,48,106,86,79,67,14829,2147737270,2147547529,2148306733,2147876818,2147596827,2147194386,2148356242,2147220123,1256,3,14,54299
1369866983,5808,227.1699981689453000,14.6290998458862300,34.3935012817382800,221.2438049316406200,343.2540893554687500,14.6364898681640620,33.1143608093261700,49,105,85,80,66,14824,2147742765,2147608530,2148433929,2147877156,2147598921,2147234084,2148417307,2147225956,70,4,13,31072
1369867106,5808,216.1199951171875000,15.4224004745483400,34.4744987487793000,217.0381927490234400,317.9443969726562500,15.4127397537231450,32.9696006774902340,49,107,87,81,66,14821,2147761984,2147697014,2148601270,2147878189,2147603885,2147297901,2148496365,2147228882,1876,3,14,58420
1369867227,5807,205.3899993896484400,15.9505996704101560,34.4986991882324200,215.7655944824218800,300.6995849609375000,15.9407796859741210,32.7887115478515600,50,106,86,80,66,14823,2147796425,2147826806,2148829421,2147877476,2147612937,2147371291,2148608100,2147241481,996,2,14,54616
1369867326,5807,197.5200042724609400,16.4470996856689450,34.5443992614746100,214.4147033691406200,283.9046020507812500,16.4545192718505860,32.6208381652832000,50,105,86,81,65,14815,2147834806,2147955830,2149052388,2147878153,2147627154,2147449426,2148713956,2147246363,3221,2,14,11377
1369867401,5810,192.7599945068359400,16.7609004974365230,34.5975990295410160,215.9642028808593800,274.4403076171875000,16.7438392639160160,32.4015693664550800,52,107,85,79,65,14819,2147864603,2148054610,2149203437,2147875300,2147640420,2147500992,2148790144,2147252736,2511,2,15,19623
1369867467,5808,189.3699951171875000,16.8262004852294920,34.6086006164550800,217.0070037841797000,271.3644104003906000,16.8378391265869140,32.3016510009765600,53,104,86,80,66,14816,2147891757,2148125394,2149330779,2147881874,2147646491,2147556214,2148846491,2147262336,2072,3,15,14167
1369867544,5808,185.7599945068359400,17.3717002868652340,34.6932983398437500,217.9810028076172000,254.9246978759765600,17.3401203155517580,32.0177993774414060,54,109,87,80,64,14810,2147931730,2148217600,2149463076,2147880950,2147662235,2147605001,2148915081,2147262921,1734,3,14,27245
1369867643,5808,181.8699951171875000,17.8222007751464840,34.7522010803222660,218.3813018798828000,239.2378997802734400,17.8192291259765620,31.7776699066162100,57,109,88,81,64,14808,2147985691,2148331556,2149642486,2147881115,2147680265,2147684644,2149002203,2147272722,204,3,14,21326
1369867744,5806,177.6499938964843800,18.3868007659912100,34.8417015075683600,218.7389068603515600,223.7669067382812500,18.2916793823242200,31.5451297760009770,64,116,88,82,64,14797,2148052361,2148479332,2149869202,2147882404,2147710345,2147778587,2149113490,2147280630,2976,2,15,22910
1369867843,5809,173.6300048828125000,18.8512001037597660,34.9188995361328100,221.1343994140625000,206.6598968505859400,18.8141403198242200,31.1861591339111330,70,115,89,83,64,14794,2148136091,2148649298,2150135643,2147880054,2147745344,2147883364,2149240466,2147292251,99,3,14,45640
1369867942,5807,169.7299957275390600,19.0955009460449220,34.9697990417480500,225.2297058105468800,198.1988983154297000,19.0726108551025400,30.8619308471679700,71,116,88,80,61,14790,2148234057,2148859483,2150454765,2147882157,2147789174,2148012022,2149389220,2147301147,3487,2,15,34706
1369868044,5807,165.9400024414062500,19.4109001159667970,35.0275001525878900,227.1985931396484400,187.7967987060547000,19.3904399871826170,30.6234092712402340,78,121,89,83,62,14778,2148346441,2149073170,2150777664,2147885842,2147843611,2148147593,2149542262,2147310326,380,2,15,21996
1369868154,5811,162.1399993896484400,19.7395992279052730,35.0843009948730500,228.3484039306640600,176.6929931640625000,19.7298507690429700,30.4182891845703120,83,115,89,82,61,14774,2148493814,2149346459,2151191259,2147889051,2147915803,2148326793,2149742427,2147326052,2679,2,16,27754
1369868275,5808,157.7500000000000000,20.0428009033203120,35.1328010559082000,228.5137023925781200,167.0774993896484400,20.0238895416259770,30.2827606201171880,88,118,89,82,61,14769,2148722788,2149773540,2151820123,2147892443,2148029705,2148571931,2150028022,2147349769,3130,2,15,4141
1369868372,5811,152.9900054931640600,20.3546009063720700,35.1834983825683600,229.4960937500000000,156.5408935546875000,20.3462791442871100,30.0956192016601560,94,119,91,81,62,14762,2148994971,2150245650,2152494774,2147896210,2148161362,2148855378,2150337691,2147374043,2958,2,15,17651
1369868438,5809,148.8000030517578000,20.5181999206542970,35.2109985351562500,230.3460998535156200,151.3634948730468800,20.5047702789306640,29.9864292144775400,101,120,87,82,62,14759,2149301412,2150782546,2153288978,2147908928,2148315977,2149176420,2150708781,2147404406,2514,2,15,1209
1369868493,5808,145.2400054931640600,20.6438007354736330,35.2366981506347660,231.9102020263672000,146.6390075683593800,20.6494407653808600,29.8489398956298830,101,122,91,82,60,14744,2149572288,2151255204,2153987364,2147913078,2148453458,2149441682,2151004205,2147427894,1852,2,15,436
1369868559,5808,141.0200042724609400,20.7789001464843750,35.2591018676757800,233.4821929931640600,143.1847991943359400,20.7552394866943360,29.7284908294677730,106,125,91,81,60,14737,2149992429,2151987830,2155057554,2147925138,2148663872,2149845522,2151471113,2147460690,1279,2,15,28394
1369868625,5807,136.8600006103515600,20.8701000213623050,35.2737998962402340,234.8314971923828000,139.4228057861328000,20.8705005645751950,29.6156692504882800,115,119,88,82,60,14736,2150482514,2152806464,2156226688,2147941174,2148901549,2150284800,2151976237,2147505408,1599,2,16,29796
1369868700,5808,132.8800048828125000,21.0055999755859380,35.2937011718750000,236.1909027099609400,135.4730987548828000,20.9915409088134770,29.5003509521484380,124,120,88,82,60,14727,2150969947,2153612644,2157364745,2147957202,2149133266,2150695990,2152432548,2147541641,1241,2,16,23708
1369868821,5808,129.2799987792968800,21.0704994201660160,35.3055000305175800,236.6949005126953000,133.7801971435547000,21.0434398651123050,29.4549503326416000,131,119,89,83,61,14724,2151409910,2154288365,2158290468,2147975350,2149350683,2151029421,2152821933,2147578313,1198,2,16,15452
1369869006,5810,124.9100036621093800,21.2411003112792970,35.3258018493652340,238.0177001953125000,127.4389038085937500,21.2378807067871100,29.3116302490234380,132,118,89,83,60,14706,2152340681,2155870418,2160573193,2148011913,2149778185,2151761170,2153677394,2147652836,1110,2,15,60189
1369869116,5810,120.7900009155273400,21.2992000579834000,35.3002014160156250,240.2539062500000000,125.6028976440429700,21.2942008972167970,29.1849098205566400,142,124,90,82,60,14703,2153314934,2157454034,2162596955,2148050550,2150164745,2152343497,2154340653,2147714358,2947,2,15,39418
1369869226,5808,117.0299987792968800,21.3537998199462900,35.3031997680664060,241.5048980712890600,123.9280014038086000,21.3455791473388670,29.1063594818115230,137,121,91,81,60,14690,2154551286,2159417353,2165082212,2148103579,2150671222,2153144338,2155269504,2147800932,3519,1,16,2036
1369869338,5806,112.3499984741211000,21.3836002349853500,35.3060989379882800,242.4752044677734400,122.7740020751953100,21.3809890747070300,29.0473499298095700,135,119,88,83,61,14684,2156634578,2162569965,2168817398,2148196086,2151566262,2154517668,2156738889,2147939264,3340,2,16,18428
1369869415,5810,108.2200012207031200,21.4034996032714840,35.3026008605957000,242.7586975097656200,122.0858993530273400,21.4021091461181640,29.0257606506347660,124,117,93,83,60,14699,2159001709,2166079488,2172903433,2148297005,2152628763,2156193837,2158478153,2148109842,3343,2,16,44937
1369869492,5811,104.0199966430664000,21.4540996551513670,35.2967987060546900,242.7537994384765600,120.5793991088867200,21.4483394622802730,29.0068092346191400,108,116,89,82,60,14714,2161743734,2169937225,2177202176,2148435693,2153899584,2158110610,2160373888,2148297362,3280,1,15,48107
1369869558,5808,100.5000000000000000,21.5265007019042970,35.2947006225585940,243.1544952392578000,118.3066024780273400,21.5181007385253900,28.9595909118652340,95,113,89,82,59,14716,2164465078,2173602642,2181176448,2148575186,2155233298,2160121252,2162320438,2148484635,3374,1,15,43534
1369869615,5809,97.4899978637695300,21.5573997497558600,35.2920989990234400,243.3058013916015600,117.1588973999023400,21.5533294677734380,28.9380607604980470,95,113,90,82,60,14692,2167209609,2177296768,2185196992,2148735954,2156597997,2162135579,2164200484,2148667675,2523,2,16,38722
1369869670,5812,94.5299987792968800,21.6112995147705080,35.2766990661621100,243.2366027832031200,115.2660980224609400,21.6114501953125000,28.9171390533447270,90,116,88,83,58,14713,2170629403,2181676580,2189823597,2148963163,2158338761,2164672356,2166565147,2148913060,2045,1,15,42847
1369869725,5809,91.6900024414062500,21.6793994903564450,35.2442016601562500,243.1761016845703000,113.3369979858398400,21.6706790924072270,28.8955001831054700,82,118,89,82,58,14712,2173810029,2185484214,2193619620,2149164818,2159962048,2166964416,2168650194,2149122121,1979,2,16,20205
1369869780,5808,89.0699996948242200,21.6837997436523440,35.2209014892578100,243.2008056640625000,112.6912002563476600,21.6905193328857420,28.8861408233642580,83,118,88,82,58,14709,2176981961,2189070628,2197006564,2149377097,2161502774,2169074002,2170479780,2149314121,1244,2,16,25757
1369869835,5808,86.6800003051757800,21.7849006652832030,35.2298011779785160,243.3164978027343800,109.7546997070312500,21.7807197570800780,28.8435993194580080,79,119,91,83,59,14702,2180810340,2193613897,2201699008,2149651245,2163360896,2171591241,2172688329,2149557860,1218,2,16,62770
1369869890,5808,84.5400009155273400,21.8103008270263670,35.2347984313964840,243.7389984130859400,108.8277969360351600,21.8092002868652340,28.8127498626709000,79,118,89,83,57,14705,2184092809,2197050514,2204702774,2149907593,2165234560,2174059638,2174802075,2149771081,952,2,15,48646
1369869947,5810,82.3899993896484400,21.8507995605468750,35.2400016784668000,243.9161987304687500,107.4140014648437500,21.8526401519775400,28.7868995666503900,78,121,91,83,59,14706,2188630555,2202286747,2209945545,2150252800,2167503469,2176979840,2177256082,2150037622,590,1,16,199
1369870002,5808,80.5000000000000000,21.9248008728027340,35.2485008239746100,244.2290039062500000,105.2020034790039000,21.9206199645996100,28.7448692321777340,74,117,90,84,59,14708,2192532278,2206546980,2213973412,2150569225,2169745828,2179810852,2179585252,2150295460,460,2,15,62125
1369870057,5808,78.8600006103515600,22.0163993835449220,35.2570991516113300,244.4774932861328000,102.3784027099609400,22.0074195861816400,28.6979808807373050,73,119,92,83,59,14714,2193715419,2207242011,2213932891,2150655808,2170739986,2180729856,2179958994,2150358921,342,2,16,33176
1369870123,5806,77.1600036621093800,22.1035003662109380,35.2588996887207000,244.9851989746093800,99.5469131469726600,22.0944900512695300,28.6394996643066400,71,117,90,83,59,14708,2198853750,2213152192,2220096941,2151160777,2173596260,2184283035,2182891977,2150686436,528,1,15,56387
1369870211,5806,75.5699996948242200,22.1968994140625000,35.2627983093261700,245.6573028564453000,96.6184234619140600,22.1845703125000000,28.5728397369384770,69,118,90,84,57,14716,2203635611,2218430729,2225278354,2151604571,2176807506,2188312722,2186116370,2151024722,625,2,16,5426
1369870311,5807,73.0100021362304700,22.2560005187988280,35.2664985656738300,246.5128936767578000,94.4535827636718800,22.2511806488037100,28.5076599121093750,66,119,92,86,60,14701,2212233801,2227341275,2233611273,2152498432,2183075904,2195705837,2191791469,2151647689,932,2,15,37572
1369870366,5805,70.8499984741211000,22.3113002777099600,35.2573013305664060,247.0482940673828000,92.6031570434570300,22.3081302642822270,28.4607906341552730,66,118,92,83,60,14698,2218100598,2232672868,2237760402,2153008987,2187595337,2200610002,2195217225,2152068708,1268,1,16,8918
1369870421,5809,68.6100006103515600,22.3572998046875000,35.2574996948242200,247.4165039062500000,90.9972534179687500,22.3575592041015620,28.4244899749755860,66,117,93,84,56,14685,2224969380,2239552822,2244276553,2153923172,2191945462,2205322075,2198586358,2152473161,602,1,15,64827
1369870476,5811,66.3899993896484400,22.3859996795654300,35.2575988769531250,247.9044036865234400,89.9907684326171900,22.3885498046875000,28.3905296325683600,65,118,89,84,58,14704,2233876169,2249041380,2253462820,2155070080,2197984941,2211905718,2203462208,2153137197,3339,2,16,979
1369870531,5808,64.0899963378906200,22.4109992980957030,35.2478981018066400,248.4635009765625000,89.1840209960937500,22.4133892059326170,28.3559207916259770,65,118,89,83,56,14695,2240375588,2255241243,2258961115,2156167488,2203526464,2217733440,2207487414,2153639414,2785,1,16,14467
1369870609,5807,60.3300018310546900,22.5527000427246100,35.2503013610839840,248.7266998291015600,85.1607971191406200,22.5372905731201170,28.2942008972167970,64,116,88,83,57,14692,2257049426,2271680493,2274603757,2158791945,2216049764,2231082066,2217288950,2155018002,2624,1,16,64799
1369870664,5810,57.2999992370605500,22.7581005096435550,35.2677001953125000,248.6311035156250000,77.2465820312500000,22.7812194824218750,28.1993103027343750,62,116,89,85,58,14696,2274100900,2289945270,2293308772,2162128246,2227186441,2242861001,2225665124,2156328713,2322,2,16,29819
1369870719,5808,54.4099998474121100,22.9843006134033200,35.2946014404296900,249.6352996826172000,70.8226089477539000,22.9793891906738280,28.0758991241455080,60,115,89,84,58,14692,2280189732,2293546880,2295078144,2163774144,2236854774,2252187739,2231906322,2157243584,1903,1,15,47697
1369870774,5807,51.8600006103515600,23.0547008514404300,35.3167991638183600,250.7301940917968800,68.5296325683593800,23.0501594543457030,28.0002708435058600,60,117,89,84,58,14682,2290569216,2303017024,2304026880,2166396443,2246563538,2261285851,2237712740,2158212617,1453,2,16,3830
1369870829,5810,49.4099998474121100,23.0942001342773440,35.3064994812011700,250.9337005615234400,66.9812469482421900,23.0979690551757800,27.9723091125488280,60,115,90,82,54,14689,2309076489,2321080539,2321532489,2170169846,2264022939,2279585051,2251116928,2160344704,1118,2,16,22388
1369870884,5810,47.0900001525878900,23.1637001037597660,35.2891998291015600,250.9002990722656200,64.8645095825195300,23.1633396148681640,27.9475898742675780,57,114,92,83,53,14689,2325902592,2338047817,2338801124,2175130267,2274007899,2288447552,2256700992,2161352886,381,2,15,25355
1369870941,5809,45.0600013732910160,23.1987991333007800,35.2705993652343750,251.0541992187500000,63.4839096069335940,23.2059803009033200,27.9237194061279300,56,115,89,82,59,14690,2331780681,2341412141,2339899876,2177321106,2282825417,2295737243,2261066230,2162140233,3346,1,16,26591
1369871007,5809,43.1100006103515600,23.5496006011962900,35.3376007080078100,250.1020050048828000,52.7699089050293000,23.5372104644775400,27.8320102691650400,56,114,89,83,56,14688,2347918016,2357730569,2356121042,2182306194,2298954742,2311422290,2271341650,2164189997,2461,1,16,50074
1369871084,5810,41.3400001525878900,23.6201992034912100,35.3465003967285160,250.8663940429687500,49.9182205200195300,23.6254596710205080,27.7640800476074220,56,115,89,84,58,14690,2352488758,2359374473,2356560868,2184812096,2310622646,2321943314,2278010596,2165586889,1766,2,16,30566
1369871172,5809,39.2400016784668000,23.6548995971679700,35.3492012023925800,250.9700012207031200,48.4015083312988300,23.6724090576171880,27.7409706115722660,54,113,89,83,55,14692,2376045330,2382708361,2381511067,2193518116,2329845778,2339924050,2289816356,2167949741,1095,1,16,57426
1369871273,5804,35.8699989318847660,23.8614997863769530,35.3679008483886700,250.5256958007812500,42.2054100036621100,23.8643302917480470,27.6837100982666000,53,118,89,83,56,14688,2397079478,2400723638,2397642002,2202623734,2360194523,2366891382,2307078665,2171111222,525,2,15,47445
1369871328,5809,33.4399986267089840,23.9852008819580080,35.3754005432128900,250.3497924804687500,38.2979507446289060,23.9854507446289060,27.6431407928466800,54,116,90,83,63,14681,2412590052,2416017005,2415390692,2214116306,2381912073,2386160694,2319518774,2175081417,1060,2,17,44874
1369871383,5817,31.2099990844726560,24.2348995208740230,35.3781013488769500,249.2052001953125000,30.4271907806396500,24.2296600341796880,27.5953006744384770,53,113,90,84,55,14690,2423489380,2426680886,2425357906,2223195236,2408367158,2409553234,2334355291,2178416027,1797,1,16,50378
1369871438,5809,29.3799991607666000,24.3278999328613280,35.3825988769531250,248.7185974121093800,26.9779491424560550,24.3367805480957030,27.5738506317138670,51,114,92,83,59,14611,2435782345,2439211675,2438451620,2231729965,2424058441,2422458459,2342166966,2181259328,2085,2,16,21417
1369871493,5809,27.8700008392334000,24.3889007568359380,35.3823013305664060,248.4241943359375000,24.7888202667236330,24.4048004150390620,27.5597591400146500,53,114,90,84,56,14701,2462532836,2467744164,2468805376,2246739776,2445432859,2440338916,2353568283,2184163574,2799,1,16,28518